Time,TemperatureF,DewpointF,PressureIn,WindDirection,WindDirectionDegrees,WindSpeedMPH,WindSpeedGustMPH,Humidity,HourlyPrecipIn,Conditions,Clouds,dailyrainin,SoftwareType,DateUTC
2013-08-19 00:01:00,65.2,64.0,30.07,WNW,302,0.0,1.0,96,0.01,,,0.08,VWS V14.01,2013-08-19 04:01:00,
2013-08-19 00:02:00,65.2,64.0,30.07,WNW,302,0.0,1.0,96,0.01,,,0.08,VWS V14.01,2013-08-19 04:02:00,
2013-08-19 00:03:00,65.2,64.0,30.07,WNW,302,0.0,1.0,96,0.01,,,0.08,VWS V14.01,2013-08-19 04:03:00,
2013-08-19 00:08:00,65.0,63.8,30.08,WNW,302,0.0,1.0,96,0.01,,,0.00,VWS V14.01,2013-08-19 04:08:00,
2013-08-19 00:13:00,65.0,63.8,30.08,WNW,302,0.0,1.0,96,0.01,,,0.00,VWS V14.01,2013-08-19 04:13:00,
2013-08-19 00:18:00,65.0,64.1,30.08,WNW,302,0.0,1.0,97,0.01,,,0.00,VWS V14.01,2013-08-19 04:18:00,
2013-08-19 00:23:00,65.0,64.1,30.08,WNW,302,0.0,1.0,97,0.01,,,0.00,VWS V14.01,2013-08-19 04:23:00,
2013-08-19 00:29:00,65.0,64.1,30.08,WNW,302,0.0,1.0,97,0.01,,,0.00,VWS V14.01,2013-08-19 04:29:00,
2013-08-19 00:34:00,65.0,64.1,30.08,WNW,302,0.0,1.0,97,0.00,,,0.00,VWS V14.01,2013-08-19 04:34:00,
2013-08-19 00:39:00,65.0,64.1,30.08,WNW,302,0.0,1.0,97,0.00,,,0.00,VWS V14.01,2013-08-19 04:39:00,
2013-08-19 00:44:00,65.0,64.1,30.08,WNW,302,0.0,1.0,97,0.00,,,0.00,VWS V14.01,2013-08-19 04:44:00,
2013-08-19 00:49:00,65.0,64.1,30.08,WNW,302,0.0,1.0,97,0.00,,,0.00,VWS V14.01,2013-08-19 04:49:00,
2013-08-19 00:54:00,65.0,64.1,30.07,WNW,302,0.0,1.0,97,0.00,,,0.00,VWS V14.01,2013-08-19 04:54:00,
2013-08-19 00:59:00,65.0,64.1,30.07,WNW,302,0.0,1.0,97,0.00,,,0.00,VWS V14.01,2013-08-19 04:59:00,
2013-08-19 01:04:00,65.0,64.1,30.07,WNW,302,0.0,1.0,97,0.00,,,0.00,VWS V14.01,2013-08-19 05:04:00,
2013-08-19 01:09:00,65.0,64.1,30.07,WNW,302,0.0,1.0,97,0.00,,,0.00,VWS V14.01,2013-08-19 05:09:00,
2013-08-19 01:14:00,64.8,63.9,30.07,WNW,302,0.0,1.0,97,0.00,,,0.00,VWS V14.01,2013-08-19 05:14:00,
2013-08-19 01:19:00,64.8,63.9,30.07,WNW,302,0.0,1.0,97,0.00,,,0.00,VWS V14.01,2013-08-19 05:19:00,
2013-08-19 01:24:00,65.0,64.1,30.06,WNW,302,0.0,1.0,97,0.00,,,0.00,VWS V14.01,2013-08-19 05:24:00,
2013-08-19 01:29:00,64.8,63.9,30.06,WNW,302,0.0,1.0,97,0.00,,,0.00,VWS V14.01,2013-08-19 05:29:00,
2013-08-19 01:34:00,64.8,63.9,30.06,WNW,302,0.0,1.0,97,0.00,,,0.00,VWS V14.01,2013-08-19 05:34:00,
2013-08-19 01:39:00,64.8,63.9,30.05,WNW,302,0.0,1.0,97,0.01,,,0.01,VWS V14.01,2013-08-19 05:39:00,
2013-08-19 01:44:00,64.8,63.9,30.05,WNW,302,0.0,1.0,97,0.01,,,0.01,VWS V14.01,2013-08-19 05:44:00,
2013-08-19 01:49:00,64.7,63.8,30.05,WNW,302,0.0,1.0,97,0.01,,,0.01,VWS V14.01,2013-08-19 05:49:00,
2013-08-19 01:54:00,64.7,63.8,30.05,WNW,302,0.0,1.0,97,0.01,,,0.01,VWS V14.01,2013-08-19 05:54:00,
2013-08-19 01:59:00,64.7,63.8,30.05,WNW,302,0.0,1.0,97,0.01,,,0.01,VWS V14.01,2013-08-19 05:59:00,
2013-08-19 02:04:00,64.7,63.8,30.05,WNW,302,0.0,1.0,97,0.01,,,0.01,VWS V14.01,2013-08-19 06:04:00,
2013-08-19 02:09:00,64.7,63.8,30.05,WNW,302,0.0,1.0,97,0.02,,,0.02,VWS V14.01,2013-08-19 06:09:00,
2013-08-19 02:14:00,64.7,63.8,30.05,WNW,302,0.0,1.0,97,0.02,,,0.02,VWS V14.01,2013-08-19 06:14:00,
2013-08-19 02:19:00,64.7,63.8,30.05,WNW,302,0.0,1.0,97,0.02,,,0.02,VWS V14.01,2013-08-19 06:19:00,
2013-08-19 02:24:00,64.7,63.8,30.04,WNW,302,0.0,1.0,97,0.02,,,0.02,VWS V14.01,2013-08-19 06:24:00,
2013-08-19 02:29:00,64.5,63.6,30.04,WNW,302,0.0,1.0,97,0.03,,,0.03,VWS V14.01,2013-08-19 06:29:00,
2013-08-19 02:34:00,64.3,63.4,30.04,WNW,302,0.0,1.0,97,0.03,,,0.03,VWS V14.01,2013-08-19 06:34:00,
2013-08-19 02:39:00,64.3,63.4,30.04,WNW,302,0.0,1.0,97,0.03,,,0.03,VWS V14.01,2013-08-19 06:39:00,
2013-08-19 02:44:00,64.3,63.4,30.04,WNW,302,0.0,1.0,97,0.02,,,0.03,VWS V14.01,2013-08-19 06:44:00,
2013-08-19 02:49:00,64.3,63.4,30.04,WNW,302,0.0,1.0,97,0.02,,,0.03,VWS V14.01,2013-08-19 06:49:00,
2013-08-19 02:54:00,64.3,63.4,30.04,WNW,302,0.0,1.0,97,0.02,,,0.03,VWS V14.01,2013-08-19 06:54:00,
2013-08-19 02:59:00,64.3,63.4,30.04,WNW,302,0.0,1.0,97,0.02,,,0.03,VWS V14.01,2013-08-19 06:59:00,
2013-08-19 03:04:00,64.3,63.4,30.04,WNW,302,0.0,1.0,97,0.02,,,0.03,VWS V14.01,2013-08-19 07:04:00,
2013-08-19 03:09:00,64.3,63.4,30.03,WNW,302,0.0,1.0,97,0.02,,,0.03,VWS V14.01,2013-08-19 07:09:00,
2013-08-19 03:14:00,64.2,63.3,30.03,WNW,302,0.0,1.0,97,0.01,,,0.03,VWS V14.01,2013-08-19 07:14:00,
2013-08-19 03:19:00,64.2,63.3,30.03,WNW,302,0.0,1.0,97,0.01,,,0.03,VWS V14.01,2013-08-19 07:19:00,
2013-08-19 03:25:00,64.2,63.3,30.04,WNW,302,0.0,1.0,97,0.01,,,0.03,VWS V14.01,2013-08-19 07:25:00,
2013-08-19 03:30:00,64.2,63.3,30.04,WNW,302,0.0,1.0,97,0.01,,,0.03,VWS V14.01,2013-08-19 07:30:00,
2013-08-19 03:35:00,64.2,63.3,30.04,WNW,302,0.0,1.0,97,0.00,,,0.03,VWS V14.01,2013-08-19 07:35:00,
2013-08-19 03:40:00,64.0,63.1,30.04,WNW,302,0.0,1.0,97,0.00,,,0.03,VWS V14.01,2013-08-19 07:40:00,
2013-08-19 03:45:00,64.0,63.1,30.04,WNW,302,0.0,1.0,97,0.00,,,0.03,VWS V14.01,2013-08-19 07:45:00,
2013-08-19 03:50:00,64.2,63.6,30.04,WNW,302,0.0,1.0,98,0.00,,,0.03,VWS V14.01,2013-08-19 07:50:00,
2013-08-19 03:55:00,64.2,63.6,30.03,WNW,302,0.0,1.0,98,0.00,,,0.03,VWS V14.01,2013-08-19 07:55:00,
2013-08-19 04:00:00,64.0,63.4,30.03,WNW,302,0.0,1.0,98,0.00,,,0.03,VWS V14.01,2013-08-19 08:00:00,
2013-08-19 04:05:00,64.0,63.4,30.03,WNW,302,0.0,1.0,98,0.00,,,0.03,VWS V14.01,2013-08-19 08:05:00,
2013-08-19 04:10:00,64.0,63.4,30.03,WNW,302,0.0,1.0,98,0.00,,,0.03,VWS V14.01,2013-08-19 08:10:00,
2013-08-19 04:15:00,64.0,63.4,30.03,WNW,302,0.0,1.0,98,0.00,,,0.03,VWS V14.01,2013-08-19 08:15:00,
2013-08-19 04:20:00,64.0,63.4,30.04,WNW,302,0.0,1.0,98,0.00,,,0.03,VWS V14.01,2013-08-19 08:20:00,
2013-08-19 04:25:00,64.0,63.4,30.04,WNW,302,0.0,1.0,98,0.00,,,0.03,VWS V14.01,2013-08-19 08:25:00,
2013-08-19 04:30:00,64.2,63.6,30.04,WNW,302,0.0,1.0,98,0.00,,,0.03,VWS V14.01,2013-08-19 08:30:00,
2013-08-19 04:35:00,64.3,63.7,30.03,WNW,302,0.0,1.0,98,0.01,,,0.04,VWS V14.01,2013-08-19 08:35:00,
2013-08-19 04:40:00,64.3,63.7,30.03,WNW,302,0.0,1.0,98,0.01,,,0.04,VWS V14.01,2013-08-19 08:40:00,
2013-08-19 04:45:00,64.3,63.7,30.03,WNW,302,0.0,1.0,98,0.01,,,0.04,VWS V14.01,2013-08-19 08:45:00,
2013-08-19 04:50:00,64.3,63.7,30.04,WNW,302,0.0,1.0,98,0.01,,,0.04,VWS V14.01,2013-08-19 08:50:00,
2013-08-19 04:55:00,64.3,63.7,30.04,WNW,302,0.0,1.0,98,0.01,,,0.04,VWS V14.01,2013-08-19 08:55:00,
2013-08-19 05:00:00,64.3,63.7,30.04,WNW,302,0.0,1.0,98,0.01,,,0.04,VWS V14.01,2013-08-19 09:00:00,
2013-08-19 05:05:00,64.5,63.9,30.02,WNW,302,0.0,1.0,98,0.01,,,0.04,VWS V14.01,2013-08-19 09:05:00,
2013-08-19 05:10:00,64.5,63.9,30.02,WNW,302,0.0,1.0,98,0.01,,,0.04,VWS V14.01,2013-08-19 09:10:00,
2013-08-19 05:15:00,64.5,63.9,30.02,WNW,302,0.0,1.0,98,0.01,,,0.04,VWS V14.01,2013-08-19 09:15:00,
2013-08-19 05:20:00,64.7,64.1,30.04,WNW,302,0.0,1.0,98,0.01,,,0.04,VWS V14.01,2013-08-19 09:20:00,
2013-08-19 05:25:00,64.8,64.2,30.04,WNW,302,0.0,1.0,98,0.01,,,0.04,VWS V14.01,2013-08-19 09:25:00,
2013-08-19 05:30:00,64.8,64.2,30.04,WNW,302,0.0,1.0,98,0.01,,,0.04,VWS V14.01,2013-08-19 09:30:00,
2013-08-19 05:35:00,64.8,64.2,30.02,WNW,302,0.0,1.0,98,0.01,,,0.04,VWS V14.01,2013-08-19 09:35:00,
2013-08-19 05:40:00,64.7,64.1,30.02,WNW,302,0.0,1.0,98,0.00,,,0.04,VWS V14.01,2013-08-19 09:40:00,
2013-08-19 05:45:00,64.8,64.2,30.02,WNW,302,0.0,1.0,98,0.00,,,0.04,VWS V14.01,2013-08-19 09:45:00,
2013-08-19 05:50:00,64.8,64.2,30.04,WNW,302,0.0,1.0,98,0.00,,,0.04,VWS V14.01,2013-08-19 09:50:00,
2013-08-19 05:55:00,64.8,64.2,30.04,WNW,302,0.0,1.0,98,0.00,,,0.04,VWS V14.01,2013-08-19 09:55:00,
2013-08-19 06:00:00,64.8,64.2,30.04,WNW,302,0.0,1.0,98,0.00,,,0.04,VWS V14.01,2013-08-19 10:00:00,
2013-08-19 06:05:00,64.8,64.2,30.02,WNW,302,0.0,1.0,98,0.00,,,0.04,VWS V14.01,2013-08-19 10:05:00,
2013-08-19 06:10:00,64.7,64.1,30.02,WNW,302,0.0,1.0,98,0.00,,,0.04,VWS V14.01,2013-08-19 10:10:00,
2013-08-19 06:15:00,64.8,64.2,30.02,WNW,302,0.0,1.0,98,0.00,,,0.04,VWS V14.01,2013-08-19 10:15:00,
2013-08-19 06:20:00,64.8,64.2,30.03,WNW,302,0.0,1.0,98,0.00,,,0.04,VWS V14.01,2013-08-19 10:20:00,
2013-08-19 06:26:00,64.8,64.2,30.03,WNW,302,0.0,1.0,98,0.00,,,0.04,VWS V14.01,2013-08-19 10:26:00,
2013-08-19 06:31:00,64.7,64.1,30.03,WNW,302,0.0,1.0,98,0.00,,,0.04,VWS V14.01,2013-08-19 10:31:00,
2013-08-19 06:36:00,64.7,64.1,30.04,WNW,302,0.0,1.0,98,0.00,,,0.04,VWS V14.01,2013-08-19 10:36:00,
2013-08-19 06:41:00,64.7,64.1,30.04,WNW,302,0.0,1.0,98,0.00,,,0.04,VWS V14.01,2013-08-19 10:41:00,
2013-08-19 06:46:00,64.5,63.9,30.04,WNW,302,0.0,1.0,98,0.00,,,0.04,VWS V14.01,2013-08-19 10:46:00,
2013-08-19 06:51:00,64.5,63.9,30.03,WNW,302,0.0,1.0,98,0.00,,,0.04,VWS V14.01,2013-08-19 10:51:00,
2013-08-19 06:56:00,64.3,63.7,30.03,WNW,302,0.0,1.0,98,0.00,,,0.04,VWS V14.01,2013-08-19 10:56:00,
2013-08-19 07:01:00,64.3,63.7,30.03,WNW,302,0.0,1.0,98,0.00,,,0.04,VWS V14.01,2013-08-19 11:01:00,
2013-08-19 07:06:00,64.3,63.7,30.05,WNW,302,0.0,1.0,98,0.00,,,0.04,VWS V14.01,2013-08-19 11:06:00,
2013-08-19 07:11:00,64.3,63.7,30.05,WNW,302,0.0,1.0,98,0.00,,,0.04,VWS V14.01,2013-08-19 11:11:00,
2013-08-19 07:16:00,64.3,63.7,30.05,WNW,302,1.0,1.0,98,0.00,,,0.04,VWS V14.01,2013-08-19 11:16:00,
2013-08-19 07:21:00,64.5,63.9,30.05,WNW,302,0.0,1.0,98,0.00,,,0.04,VWS V14.01,2013-08-19 11:21:00,
2013-08-19 07:26:00,64.5,63.9,30.05,WNW,302,0.0,1.0,98,0.00,,,0.04,VWS V14.01,2013-08-19 11:26:00,
2013-08-19 07:31:00,64.7,64.1,30.05,WNW,302,0.0,1.0,98,0.00,,,0.04,VWS V14.01,2013-08-19 11:31:00,
2013-08-19 07:36:00,64.7,64.1,30.03,WNW,302,0.0,1.0,98,0.00,,,0.04,VWS V14.01,2013-08-19 11:36:00,
2013-08-19 07:41:00,64.7,64.1,30.03,WNW,302,0.0,1.0,98,0.00,,,0.04,VWS V14.01,2013-08-19 11:41:00,
2013-08-19 07:46:00,64.7,64.1,30.03,WNW,302,0.0,1.0,98,0.00,,,0.04,VWS V14.01,2013-08-19 11:46:00,
2013-08-19 07:51:00,64.5,63.9,30.03,WNW,302,0.0,1.0,98,0.00,,,0.04,VWS V14.01,2013-08-19 11:51:00,
2013-08-19 07:56:00,64.5,63.9,30.03,WNW,302,0.0,1.0,98,0.00,,,0.04,VWS V14.01,2013-08-19 11:56:00,
2013-08-19 08:01:00,64.5,63.9,30.03,WNW,302,0.0,1.0,98,0.00,,,0.04,VWS V14.01,2013-08-19 12:01:00,
2013-08-19 08:06:00,64.5,63.9,30.05,WNW,302,0.0,1.0,98,0.00,,,0.04,VWS V14.01,2013-08-19 12:06:00,
2013-08-19 08:11:00,64.5,63.9,30.05,WNW,302,0.0,1.0,98,0.00,,,0.04,VWS V14.01,2013-08-19 12:11:00,
2013-08-19 08:16:00,64.7,64.1,30.05,WNW,302,0.0,1.0,98,0.00,,,0.04,VWS V14.01,2013-08-19 12:16:00,
2013-08-19 08:21:00,64.7,64.1,30.05,WNW,302,0.0,1.0,98,0.00,,,0.04,VWS V14.01,2013-08-19 12:21:00,
2013-08-19 08:26:00,64.7,64.1,30.05,WNW,302,0.0,1.0,98,0.00,,,0.04,VWS V14.01,2013-08-19 12:26:00,
2013-08-19 08:31:00,64.8,64.2,30.05,WNW,302,0.0,1.0,98,0.00,,,0.04,VWS V14.01,2013-08-19 12:31:00,
2013-08-19 08:36:00,64.8,64.2,30.05,WNW,302,0.0,1.0,98,0.00,,,0.04,VWS V14.01,2013-08-19 12:36:00,
2013-08-19 08:41:00,65.0,64.4,30.05,WNW,302,0.0,1.0,98,0.00,,,0.04,VWS V14.01,2013-08-19 12:41:00,
2013-08-19 08:46:00,65.0,64.4,30.05,WNW,302,0.0,1.0,98,0.00,,,0.04,VWS V14.01,2013-08-19 12:46:00,
2013-08-19 08:51:00,65.2,64.6,30.05,WNW,302,0.0,1.0,98,0.00,,,0.04,VWS V14.01,2013-08-19 12:51:00,
2013-08-19 08:56:00,65.2,64.6,30.05,WNW,302,0.0,1.0,98,0.00,,,0.04,VWS V14.01,2013-08-19 12:56:00,
2013-08-19 09:01:00,65.3,64.7,30.05,WNW,302,0.0,1.0,98,0.00,,,0.04,VWS V14.01,2013-08-19 13:01:00,
2013-08-19 09:07:00,65.3,64.7,30.05,WNW,302,0.0,1.0,98,0.00,,,0.04,VWS V14.01,2013-08-19 13:07:00,
2013-08-19 09:12:00,65.5,64.9,30.05,WNW,302,0.0,1.0,98,0.00,,,0.04,VWS V14.01,2013-08-19 13:12:00,
2013-08-19 09:17:00,65.5,64.9,30.05,WNW,302,0.0,1.0,98,0.00,,,0.04,VWS V14.01,2013-08-19 13:17:00,
2013-08-19 09:22:00,65.6,65.0,30.05,WNW,302,0.0,1.0,98,0.00,,,0.04,VWS V14.01,2013-08-19 13:22:00,
2013-08-19 09:27:00,65.6,65.0,30.05,WNW,302,0.0,1.0,98,0.00,,,0.04,VWS V14.01,2013-08-19 13:27:00,
2013-08-19 09:32:00,66.0,65.4,30.05,WNW,302,0.0,1.0,98,0.00,,,0.04,VWS V14.01,2013-08-19 13:32:00,
2013-08-19 09:37:00,66.0,65.4,30.06,WNW,302,0.0,1.0,98,0.00,,,0.04,VWS V14.01,2013-08-19 13:37:00,
2013-08-19 09:42:00,66.1,65.5,30.06,WNW,302,0.0,1.0,98,0.00,,,0.04,VWS V14.01,2013-08-19 13:42:00,
2013-08-19 09:47:00,66.3,65.7,30.06,WNW,302,1.0,1.0,98,0.00,,,0.04,VWS V14.01,2013-08-19 13:47:00,
2013-08-19 09:52:00,66.3,65.7,30.06,WNW,302,0.0,1.0,98,0.00,,,0.04,VWS V14.01,2013-08-19 13:52:00,
2013-08-19 09:57:00,66.3,65.7,30.06,WNW,302,0.0,1.0,98,0.00,,,0.04,VWS V14.01,2013-08-19 13:57:00,
2013-08-19 10:02:00,66.4,65.8,30.06,WNW,302,0.0,1.0,98,0.00,,,0.04,VWS V14.01,2013-08-19 14:02:00,
2013-08-19 10:07:00,66.8,66.2,30.06,WNW,302,0.0,1.0,98,0.00,,,0.04,VWS V14.01,2013-08-19 14:07:00,
2013-08-19 10:12:00,66.9,66.3,30.06,WNW,302,0.0,1.0,98,0.00,,,0.04,VWS V14.01,2013-08-19 14:12:00,
2013-08-19 10:17:00,67.1,66.5,30.06,West,276,3.0,3.0,98,0.00,,,0.04,VWS V14.01,2013-08-19 14:17:00,
2013-08-19 10:22:00,67.1,66.5,30.07,West,276,0.0,1.0,98,0.00,,,0.04,VWS V14.01,2013-08-19 14:22:00,
2013-08-19 10:27:00,66.9,66.3,30.07,West,276,0.0,1.0,98,0.00,,,0.04,VWS V14.01,2013-08-19 14:27:00,
2013-08-19 10:32:00,66.9,66.3,30.07,West,276,0.0,1.0,98,0.00,,,0.04,VWS V14.01,2013-08-19 14:32:00,
2013-08-19 10:37:00,66.9,66.3,30.07,West,276,1.0,1.0,98,0.00,,,0.04,VWS V14.01,2013-08-19 14:37:00,
2013-08-19 10:42:00,66.8,66.2,30.07,West,276,0.0,1.0,98,0.00,,,0.04,VWS V14.01,2013-08-19 14:42:00,
2013-08-19 10:47:00,67.1,66.5,30.07,West,276,0.0,1.0,98,0.00,,,0.04,VWS V14.01,2013-08-19 14:47:00,
2013-08-19 10:52:00,67.3,66.7,30.07,West,276,0.0,1.0,98,0.00,,,0.04,VWS V14.01,2013-08-19 14:52:00,
2013-08-19 10:58:00,67.1,66.5,30.07,West,276,0.0,1.0,98,0.00,,,0.04,VWS V14.01,2013-08-19 14:58:00,
2013-08-19 11:03:00,67.3,66.7,30.07,West,276,0.0,1.0,98,0.00,,,0.04,VWS V14.01,2013-08-19 15:03:00,
2013-08-19 11:08:00,67.4,66.8,30.07,West,276,0.0,1.0,98,0.00,,,0.04,VWS V14.01,2013-08-19 15:08:00,
2013-08-19 11:13:00,67.6,67.0,30.07,NW,304,0.0,1.0,98,0.00,,,0.04,VWS V14.01,2013-08-19 15:13:00,
2013-08-19 11:18:00,67.8,66.9,30.07,NW,304,0.0,1.0,97,0.00,,,0.04,VWS V14.01,2013-08-19 15:18:00,
2013-08-19 11:23:00,67.9,67.0,30.07,NW,304,0.0,1.0,97,0.00,,,0.04,VWS V14.01,2013-08-19 15:23:00,
2013-08-19 11:28:00,68.6,67.7,30.07,NW,304,0.0,1.0,97,0.00,,,0.04,VWS V14.01,2013-08-19 15:28:00,
2013-08-19 11:33:00,68.9,67.7,30.07,WSW,258,0.0,1.0,96,0.00,,,0.04,VWS V14.01,2013-08-19 15:33:00,
2013-08-19 11:38:00,69.3,68.1,30.06,WSW,258,0.0,1.0,96,0.00,,,0.04,VWS V14.01,2013-08-19 15:38:00,
2013-08-19 11:43:00,69.3,67.8,30.06,WSW,258,0.0,1.0,95,0.00,,,0.04,VWS V14.01,2013-08-19 15:43:00,
2013-08-19 11:48:00,69.3,67.8,30.06,WSW,258,0.0,1.0,95,0.00,,,0.04,VWS V14.01,2013-08-19 15:48:00,
2013-08-19 11:53:00,69.6,67.8,30.06,WSW,258,0.0,1.0,94,0.00,,,0.04,VWS V14.01,2013-08-19 15:53:00,
2013-08-19 11:58:00,69.9,68.1,30.06,WSW,258,0.0,1.0,94,0.00,,,0.04,VWS V14.01,2013-08-19 15:58:00,
2013-08-19 12:03:00,70.1,67.7,30.06,West,261,2.0,2.0,92,0.00,,,0.04,VWS V14.01,2013-08-19 16:03:00,
2013-08-19 12:08:00,70.4,67.0,30.06,West,261,2.0,2.0,89,0.00,,,0.04,VWS V14.01,2013-08-19 16:08:00,
2013-08-19 12:14:00,70.6,67.2,30.06,West,261,0.0,1.0,89,0.00,,,0.04,VWS V14.01,2013-08-19 16:14:00,
2013-08-19 12:19:00,70.6,67.2,30.06,West,261,0.0,1.0,89,0.00,,,0.04,VWS V14.01,2013-08-19 16:19:00,
2013-08-19 12:24:00,70.8,67.4,30.06,West,261,0.0,1.0,89,0.00,,,0.04,VWS V14.01,2013-08-19 16:24:00,
2013-08-19 12:29:00,70.8,67.4,30.06,West,261,0.0,1.0,89,0.00,,,0.04,VWS V14.01,2013-08-19 16:29:00,
2013-08-19 12:34:00,70.8,67.4,30.06,West,261,0.0,1.0,89,0.00,,,0.04,VWS V14.01,2013-08-19 16:34:00,
2013-08-19 12:39:00,70.9,67.8,30.06,West,261,0.0,1.0,90,0.00,,,0.04,VWS V14.01,2013-08-19 16:39:00,
2013-08-19 12:44:00,71.3,67.6,30.06,West,261,2.0,2.0,88,0.00,,,0.04,VWS V14.01,2013-08-19 16:44:00,
2013-08-19 12:49:00,72.0,67.2,30.06,West,269,0.0,1.0,85,0.00,,,0.04,VWS V14.01,2013-08-19 16:49:00,
2013-08-19 12:54:00,72.7,67.6,30.06,West,269,0.0,1.0,84,0.00,,,0.04,VWS V14.01,2013-08-19 16:54:00,
2013-08-19 13:00:00,73.2,68.1,30.06,West,269,0.0,1.0,84,0.00,,,0.04,VWS V14.01,2013-08-19 17:00:00,
2013-08-19 13:05:00,73.7,67.2,30.05,West,271,0.0,1.0,80,0.00,,,0.04,VWS V14.01,2013-08-19 17:05:00,
2013-08-19 13:10:00,73.7,67.2,30.05,West,271,0.0,1.0,80,0.00,,,0.04,VWS V14.01,2013-08-19 17:10:00,
2013-08-19 13:15:00,73.5,67.0,30.05,NW,311,0.0,1.0,80,0.00,,,0.04,VWS V14.01,2013-08-19 17:15:00,
2013-08-19 13:20:00,73.0,67.2,30.05,NW,311,0.0,1.0,82,0.00,,,0.04,VWS V14.01,2013-08-19 17:20:00,
2013-08-19 13:25:00,72.5,67.4,30.05,NW,311,0.0,1.0,84,0.00,,,0.04,VWS V14.01,2013-08-19 17:25:00,
2013-08-19 13:30:00,72.1,66.7,30.05,NW,311,0.0,1.0,83,0.00,,,0.04,VWS V14.01,2013-08-19 17:30:00,
2013-08-19 13:35:00,72.0,66.9,30.05,NW,311,0.0,1.0,84,0.00,,,0.04,VWS V14.01,2013-08-19 17:35:00,
2013-08-19 13:41:00,72.1,66.7,30.05,NW,311,0.0,1.0,83,0.00,,,0.04,VWS V14.01,2013-08-19 17:41:00,
2013-08-19 13:46:00,72.8,67.3,30.05,WNW,299,1.0,1.0,83,0.00,,,0.04,VWS V14.01,2013-08-19 17:46:00,
2013-08-19 13:51:00,73.2,67.7,30.04,WNW,299,0.0,1.0,83,0.00,,,0.04,VWS V14.01,2013-08-19 17:51:00,
2013-08-19 13:56:00,73.5,67.3,30.04,WNW,299,0.0,1.0,81,0.00,,,0.04,VWS V14.01,2013-08-19 17:56:00,
2013-08-19 14:01:00,73.7,66.8,30.04,WNW,299,0.0,1.0,79,0.00,,,0.04,VWS V14.01,2013-08-19 18:01:00,
2013-08-19 14:06:00,74.0,67.4,30.04,WNW,299,2.0,2.0,80,0.00,,,0.04,VWS V14.01,2013-08-19 18:06:00,
2013-08-19 14:11:00,74.4,66.7,30.04,WNW,299,0.0,1.0,77,0.00,,,0.04,VWS V14.01,2013-08-19 18:11:00,
2013-08-19 14:16:00,74.7,67.0,30.04,WNW,299,0.0,1.0,77,0.00,,,0.04,VWS V14.01,2013-08-19 18:16:00,
2013-08-19 14:21:00,75.3,67.6,30.04,WNW,299,0.0,1.0,77,0.00,,,0.04,VWS V14.01,2013-08-19 18:21:00,
2013-08-19 14:26:00,75.6,67.1,30.04,WNW,299,0.0,1.0,75,0.00,,,0.04,VWS V14.01,2013-08-19 18:26:00,
2013-08-19 14:31:00,76.0,67.1,30.04,WNW,298,0.0,1.0,74,0.00,,,0.04,VWS V14.01,2013-08-19 18:31:00,
2013-08-19 14:36:00,75.8,66.5,30.03,WNW,295,3.0,3.0,73,0.00,,,0.04,VWS V14.01,2013-08-19 18:36:00,
2013-08-19 14:41:00,76.1,66.8,30.03,NW,308,0.0,1.0,73,0.00,,,0.04,VWS V14.01,2013-08-19 18:41:00,
2013-08-19 14:46:00,76.5,67.2,30.03,NW,308,0.0,1.0,73,0.00,,,0.04,VWS V14.01,2013-08-19 18:46:00,
2013-08-19 14:51:00,76.8,67.9,30.02,NW,308,2.0,2.0,74,0.00,,,0.04,VWS V14.01,2013-08-19 18:51:00,
2013-08-19 14:56:00,77.6,65.3,30.02,West,267,3.0,3.0,66,0.00,,,0.04,VWS V14.01,2013-08-19 18:56:00,
2013-08-19 15:02:00,78.1,65.4,30.02,WSW,256,0.0,1.0,65,0.00,,,0.04,VWS V14.01,2013-08-19 19:02:00,
2013-08-19 15:07:00,78.8,66.9,30.01,WSW,256,0.0,1.0,67,0.00,,,0.04,VWS V14.01,2013-08-19 19:07:00,
2013-08-19 15:12:00,79.4,66.2,30.01,West,263,3.0,3.0,64,0.00,,,0.04,VWS V14.01,2013-08-19 19:12:00,
2013-08-19 15:17:00,79.4,66.6,30.01,West,271,0.0,1.0,65,0.00,,,0.04,VWS V14.01,2013-08-19 19:17:00,
2013-08-19 15:22:00,79.9,66.7,30.00,West,271,0.0,1.0,64,0.00,,,0.04,VWS V14.01,2013-08-19 19:22:00,
2013-08-19 15:27:00,79.9,66.7,30.00,West,271,0.0,1.0,64,0.00,,,0.04,VWS V14.01,2013-08-19 19:27:00,
2013-08-19 15:32:00,79.6,65.9,30.00,West,279,2.0,2.0,63,0.00,,,0.04,VWS V14.01,2013-08-19 19:32:00,
2013-08-19 15:37:00,79.2,66.9,30.00,West,281,2.0,2.0,66,0.00,,,0.04,VWS V14.01,2013-08-19 19:37:00,
2013-08-19 15:42:00,79.4,66.6,30.00,West,281,0.0,1.0,65,0.00,,,0.04,VWS V14.01,2013-08-19 19:42:00,
2013-08-19 15:47:00,79.6,65.0,30.00,North,11,1.0,1.0,61,0.00,,,0.04,VWS V14.01,2013-08-19 19:47:00,
2013-08-19 15:52:00,79.6,65.9,29.99,WNW,286,0.0,1.0,63,0.00,,,0.04,VWS V14.01,2013-08-19 19:52:00,
2013-08-19 15:57:00,79.9,66.2,29.99,WNW,286,0.0,1.0,63,0.00,,,0.04,VWS V14.01,2013-08-19 19:57:00,
2013-08-19 16:02:00,80.1,65.9,29.99,WNW,286,0.0,1.0,62,0.00,,,0.04,VWS V14.01,2013-08-19 20:02:00,
2013-08-19 16:07:00,79.9,67.1,29.98,WNW,286,0.0,1.0,65,0.00,,,0.04,VWS V14.01,2013-08-19 20:07:00,
2013-08-19 16:12:00,79.0,66.7,29.98,WNW,286,0.0,1.0,66,0.00,,,0.04,VWS V14.01,2013-08-19 20:12:00,
2013-08-19 16:18:00,78.1,67.1,29.98,WNW,289,2.0,2.0,69,0.00,,,0.04,VWS V14.01,2013-08-19 20:18:00,
2013-08-19 16:23:00,77.9,67.3,29.99,NW,315,0.0,1.0,70,0.00,,,0.04,VWS V14.01,2013-08-19 20:23:00,
2013-08-19 16:28:00,77.6,67.9,29.99,NW,315,0.0,1.0,72,0.00,,,0.04,VWS V14.01,2013-08-19 20:28:00,
2013-08-19 16:33:00,77.4,66.9,29.99,NW,315,0.0,1.0,70,0.00,,,0.04,VWS V14.01,2013-08-19 20:33:00,
2013-08-19 16:38:00,77.0,67.7,29.98,NW,315,0.0,1.0,73,0.00,,,0.04,VWS V14.01,2013-08-19 20:38:00,
2013-08-19 16:43:00,77.0,66.9,29.98,NW,315,0.0,1.0,71,0.00,,,0.04,VWS V14.01,2013-08-19 20:43:00,
2013-08-19 16:48:00,76.7,67.4,29.98,NW,315,0.0,1.0,73,0.00,,,0.04,VWS V14.01,2013-08-19 20:48:00,
2013-08-19 16:53:00,76.3,67.8,29.98,NW,315,0.0,1.0,75,0.00,,,0.04,VWS V14.01,2013-08-19 20:53:00,
2013-08-19 16:58:00,76.3,67.8,29.98,NW,315,0.0,1.0,75,0.00,,,0.04,VWS V14.01,2013-08-19 20:58:00,
2013-08-19 17:03:00,76.7,68.2,29.98,NW,315,0.0,1.0,75,0.00,,,0.04,VWS V14.01,2013-08-19 21:03:00,
2013-08-19 17:08:00,77.4,68.5,29.98,NW,315,0.0,1.0,74,0.00,,,0.04,VWS V14.01,2013-08-19 21:08:00,
2013-08-19 17:13:00,78.3,66.9,29.98,NW,315,1.0,1.0,68,0.00,,,0.04,VWS V14.01,2013-08-19 21:13:00,
2013-08-19 17:18:00,78.8,66.1,29.98,WNW,286,2.0,2.0,65,0.00,,,0.04,VWS V14.01,2013-08-19 21:18:00,
2013-08-19 17:23:00,79.4,66.2,29.98,WNW,285,1.0,1.0,64,0.00,,,0.04,VWS V14.01,2013-08-19 21:23:00,
2013-08-19 17:28:00,79.8,66.6,29.98,West,265,0.0,1.0,64,0.00,,,0.04,VWS V14.01,2013-08-19 21:28:00,
2013-08-19 17:34:00,79.6,66.4,29.98,West,265,0.0,1.0,64,0.00,,,0.04,VWS V14.01,2013-08-19 21:34:00,
2013-08-19 17:39:00,79.4,67.5,29.98,West,265,0.0,1.0,67,0.00,,,0.04,VWS V14.01,2013-08-19 21:39:00,
2013-08-19 17:44:00,78.6,67.6,29.98,West,265,0.0,1.0,69,0.00,,,0.04,VWS V14.01,2013-08-19 21:44:00,
2013-08-19 17:49:00,78.1,67.9,29.98,West,265,0.0,1.0,71,0.00,,,0.04,VWS V14.01,2013-08-19 21:49:00,
2013-08-19 17:54:00,77.9,68.6,29.98,West,265,0.0,1.0,73,0.00,,,0.04,VWS V14.01,2013-08-19 21:54:00,
2013-08-19 17:59:00,77.7,68.4,29.98,West,265,0.0,1.0,73,0.00,,,0.04,VWS V14.01,2013-08-19 21:59:00,
2013-08-19 18:04:00,78.3,68.9,29.98,West,265,0.0,1.0,73,0.00,,,0.04,VWS V14.01,2013-08-19 22:04:00,
2013-08-19 18:09:00,78.3,68.9,29.97,West,265,0.0,1.0,73,0.00,,,0.04,VWS V14.01,2013-08-19 22:09:00,
2013-08-19 18:14:00,77.6,68.7,29.97,West,265,0.0,1.0,74,0.00,,,0.04,VWS V14.01,2013-08-19 22:14:00,
2013-08-19 18:19:00,76.8,68.7,29.97,West,265,0.0,1.0,76,0.00,,,0.04,VWS V14.01,2013-08-19 22:19:00,
2013-08-19 18:24:00,76.3,68.6,29.98,West,265,0.0,1.0,77,0.00,,,0.04,VWS V14.01,2013-08-19 22:24:00,
2013-08-19 18:29:00,75.8,68.1,29.98,West,265,0.0,1.0,77,0.00,,,0.04,VWS V14.01,2013-08-19 22:29:00,
2013-08-19 18:34:00,75.4,67.7,29.98,West,265,0.0,1.0,77,0.00,,,0.04,VWS V14.01,2013-08-19 22:34:00,
2013-08-19 18:39:00,75.1,67.8,29.98,West,265,0.0,1.0,78,0.00,,,0.04,VWS V14.01,2013-08-19 22:39:00,
2013-08-19 18:44:00,74.7,68.1,29.98,West,265,0.0,1.0,80,0.00,,,0.04,VWS V14.01,2013-08-19 22:44:00,
2013-08-19 18:49:00,74.6,68.0,29.98,West,265,0.0,1.0,80,0.00,,,0.04,VWS V14.01,2013-08-19 22:49:00,
2013-08-19 18:54:00,74.6,68.4,29.97,West,265,0.0,1.0,81,0.00,,,0.04,VWS V14.01,2013-08-19 22:54:00,
2013-08-19 18:59:00,74.4,68.2,29.97,West,265,0.0,1.0,81,0.00,,,0.04,VWS V14.01,2013-08-19 22:59:00,
2013-08-19 19:04:00,74.4,68.6,29.97,West,265,0.0,1.0,82,0.00,,,0.04,VWS V14.01,2013-08-19 23:04:00,
2013-08-19 19:09:00,74.7,68.8,29.97,West,265,0.0,1.0,82,0.00,,,0.04,VWS V14.01,2013-08-19 23:09:00,
2013-08-19 19:14:00,74.9,68.7,29.97,West,265,0.0,1.0,81,0.00,,,0.04,VWS V14.01,2013-08-19 23:14:00,
2013-08-19 19:19:00,74.9,68.7,29.97,West,265,0.0,1.0,81,0.00,,,0.04,VWS V14.01,2013-08-19 23:19:00,
2013-08-19 19:24:00,74.9,68.7,29.97,West,265,0.0,1.0,81,0.00,,,0.04,VWS V14.01,2013-08-19 23:24:00,
2013-08-19 19:29:00,74.4,68.2,29.97,West,265,0.0,1.0,81,0.00,,,0.04,VWS V14.01,2013-08-19 23:29:00,
2013-08-19 19:34:00,73.7,67.9,29.97,West,265,0.0,1.0,82,0.00,,,0.04,VWS V14.01,2013-08-19 23:34:00,
2013-08-19 19:39:00,73.2,67.7,29.98,West,265,0.0,1.0,83,0.00,,,0.04,VWS V14.01,2013-08-19 23:39:00,
2013-08-19 19:45:00,72.7,67.6,29.98,West,265,0.0,1.0,84,0.00,,,0.04,VWS V14.01,2013-08-19 23:45:00,
2013-08-19 19:50:00,72.5,67.7,29.98,West,265,0.0,1.0,85,0.00,,,0.04,VWS V14.01,2013-08-19 23:50:00,
2013-08-19 19:55:00,72.1,67.7,29.99,West,265,0.0,1.0,86,0.00,,,0.04,VWS V14.01,2013-08-19 23:55:00,
2013-08-19 20:00:00,71.8,67.7,29.99,West,265,0.0,1.0,87,0.00,,,0.04,VWS V14.01,2013-08-20 00:00:00,
2013-08-19 20:05:00,71.8,68.1,29.99,West,265,0.0,1.0,88,0.00,,,0.04,VWS V14.01,2013-08-20 00:05:00,
2013-08-19 20:10:00,71.8,68.1,29.99,West,265,0.0,1.0,88,0.00,,,0.04,VWS V14.01,2013-08-20 00:10:00,
2013-08-19 20:15:00,71.8,68.4,29.99,West,265,0.0,1.0,89,0.00,,,0.04,VWS V14.01,2013-08-20 00:15:00,
2013-08-19 20:20:00,71.6,68.2,29.99,West,265,0.0,1.0,89,0.00,,,0.04,VWS V14.01,2013-08-20 00:20:00,
2013-08-19 20:25:00,71.3,67.9,30.00,West,265,0.0,1.0,89,0.01,,,0.05,VWS V14.01,2013-08-20 00:25:00,
2013-08-19 20:30:00,70.9,67.5,30.00,West,265,0.0,1.0,89,0.01,,,0.05,VWS V14.01,2013-08-20 00:30:00,
2013-08-19 20:35:00,70.4,67.3,30.00,West,265,0.0,1.0,90,0.02,,,0.06,VWS V14.01,2013-08-20 00:35:00,
2013-08-19 20:40:00,70.3,67.6,30.00,West,265,0.0,1.0,91,0.02,,,0.06,VWS V14.01,2013-08-20 00:40:00,
2013-08-19 20:45:00,69.9,67.5,30.00,West,265,0.0,1.0,92,0.03,,,0.07,VWS V14.01,2013-08-20 00:45:00,
2013-08-19 20:50:00,69.6,67.2,30.01,West,265,0.0,1.0,92,0.03,,,0.07,VWS V14.01,2013-08-20 00:50:00,
2013-08-19 20:55:00,69.4,67.3,30.01,West,265,0.0,1.0,93,0.04,,,0.08,VWS V14.01,2013-08-20 00:55:00,
2013-08-19 21:00:00,69.3,67.2,30.01,West,265,0.0,1.0,93,0.04,,,0.08,VWS V14.01,2013-08-20 01:00:00,
2013-08-19 21:05:00,68.9,67.1,30.01,West,265,0.0,1.0,94,0.04,,,0.08,VWS V14.01,2013-08-20 01:05:00,
2013-08-19 21:10:00,68.9,67.1,30.01,West,265,0.0,1.0,94,0.04,,,0.08,VWS V14.01,2013-08-20 01:10:00,
2013-08-19 21:15:00,68.8,67.0,30.01,West,265,0.0,1.0,94,0.04,,,0.08,VWS V14.01,2013-08-20 01:15:00,
2013-08-19 21:20:00,68.8,67.3,30.01,West,265,0.0,1.0,95,0.04,,,0.08,VWS V14.01,2013-08-20 01:20:00,
2013-08-19 21:25:00,68.6,67.1,30.01,West,265,0.0,1.0,95,0.03,,,0.08,VWS V14.01,2013-08-20 01:25:00,
2013-08-19 21:30:00,68.4,66.9,30.01,West,265,0.0,1.0,95,0.03,,,0.08,VWS V14.01,2013-08-20 01:30:00,
2013-08-19 21:35:00,68.3,66.8,30.02,West,265,0.0,1.0,95,0.03,,,0.08,VWS V14.01,2013-08-20 01:35:00,
2013-08-19 21:40:00,68.1,66.6,30.02,West,265,0.0,1.0,95,0.02,,,0.08,VWS V14.01,2013-08-20 01:40:00,
2013-08-19 21:45:00,67.9,66.4,30.02,West,265,0.0,1.0,95,0.01,,,0.08,VWS V14.01,2013-08-20 01:45:00,
2013-08-19 21:50:00,67.8,66.6,30.03,West,265,0.0,1.0,96,0.01,,,0.08,VWS V14.01,2013-08-20 01:50:00,
2013-08-19 21:55:00,67.8,66.6,30.03,West,265,0.0,1.0,96,0.01,,,0.08,VWS V14.01,2013-08-20 01:55:00,
2013-08-19 22:00:00,67.6,66.4,30.03,West,265,0.0,1.0,96,0.00,,,0.08,VWS V14.01,2013-08-20 02:00:00,
2013-08-19 22:05:00,67.6,66.4,30.03,West,265,0.0,1.0,96,0.00,,,0.08,VWS V14.01,2013-08-20 02:05:00,
2013-08-19 22:10:00,67.6,66.4,30.03,West,265,0.0,1.0,96,0.00,,,0.08,VWS V14.01,2013-08-20 02:10:00,
2013-08-19 22:15:00,67.8,66.6,30.03,West,265,0.0,1.0,96,0.00,,,0.08,VWS V14.01,2013-08-20 02:15:00,
2013-08-19 22:21:00,67.8,66.6,30.03,West,265,0.0,1.0,96,0.01,,,0.09,VWS V14.01,2013-08-20 02:21:00,
2013-08-19 22:26:00,67.8,66.6,30.03,West,265,0.0,1.0,96,0.01,,,0.09,VWS V14.01,2013-08-20 02:26:00,
2013-08-19 22:31:00,67.8,66.6,30.03,West,265,0.0,1.0,96,0.01,,,0.09,VWS V14.01,2013-08-20 02:31:00,
2013-08-19 22:36:00,67.8,66.6,30.03,West,265,0.0,1.0,96,0.01,,,0.09,VWS V14.01,2013-08-20 02:36:00,
2013-08-19 22:41:00,67.8,66.6,30.03,West,265,0.0,1.0,96,0.01,,,0.09,VWS V14.01,2013-08-20 02:41:00,
2013-08-19 22:46:00,67.8,66.9,30.03,West,265,0.0,1.0,97,0.01,,,0.09,VWS V14.01,2013-08-20 02:46:00,
2013-08-19 22:51:00,67.6,66.4,30.03,West,265,0.0,1.0,96,0.01,,,0.09,VWS V14.01,2013-08-20 02:51:00,
2013-08-19 22:56:00,67.6,66.7,30.03,West,265,0.0,1.0,97,0.01,,,0.09,VWS V14.01,2013-08-20 02:56:00,
2013-08-19 23:01:00,67.6,66.7,30.03,West,265,0.0,1.0,97,0.01,,,0.09,VWS V14.01,2013-08-20 03:01:00,
2013-08-19 23:06:00,67.4,66.5,30.03,West,265,0.0,1.0,97,0.01,,,0.09,VWS V14.01,2013-08-20 03:06:00,
2013-08-19 23:11:00,67.4,66.5,30.03,West,265,0.0,1.0,97,0.01,,,0.09,VWS V14.01,2013-08-20 03:11:00,
2013-08-19 23:16:00,67.4,66.5,30.03,West,265,0.0,1.0,97,0.01,,,0.09,VWS V14.01,2013-08-20 03:16:00,
2013-08-19 23:21:00,67.3,66.4,30.03,West,265,0.0,1.0,97,0.00,,,0.09,VWS V14.01,2013-08-20 03:21:00,
2013-08-19 23:26:00,67.3,66.4,30.03,West,265,0.0,1.0,97,0.00,,,0.09,VWS V14.01,2013-08-20 03:26:00,
2013-08-19 23:31:00,67.3,66.4,30.03,West,265,0.0,1.0,97,0.00,,,0.09,VWS V14.01,2013-08-20 03:31:00,
2013-08-19 23:36:00,67.1,66.2,30.03,West,265,0.0,1.0,97,0.00,,,0.09,VWS V14.01,2013-08-20 03:36:00,
2013-08-19 23:41:00,67.1,66.2,30.03,West,265,0.0,1.0,97,0.00,,,0.09,VWS V14.01,2013-08-20 03:41:00,
2013-08-19 23:46:00,67.1,66.2,30.03,West,265,0.0,1.0,97,0.00,,,0.09,VWS V14.01,2013-08-20 03:46:00,
2013-08-19 23:51:00,66.9,66.0,30.03,West,265,0.0,1.0,97,0.00,,,0.09,VWS V14.01,2013-08-20 03:51:00,
2013-08-19 23:56:00,66.9,66.0,30.03,West,265,0.0,1.0,97,0.00,,,0.09,VWS V14.01,2013-08-20 03:56:00,